Location: San Pelegr�n
(42.1868°N, 0.0079°E)
Time: 02:17:59
(UTC+00:00)

Meteor 2-2 Rocket - Pass Details

Date: 24 January 2020
Orbit: 853 x 928 km, 81.3° (Epoch: 19 February)

Event Time Altitude Azimuth Distance (km) Brightness Sun altitude
Rises 19:26:48 0° 349° (N) 3,587 7.6 -26.4°
Reaches altitude 10° 19:29:17 10° 349° (N) 2,640 6.8 -26.9°
Maximum altitude 19:35:21 85° 261° (W) 935 4.3 -28.0°
Drops below altitude 10° 19:41:19 10° 175° (S) 2,604 6.7 -29.1°
Sets 19:43:46 0° 174° (S) 3,534 7.4 -29.6°
